Time,TemperatureF,DewpointF,PressureIn,WindDirection,WindDirectionDegrees,WindSpeedMPH,WindSpeedGustMPH,Humidity,HourlyPrecipIn,Conditions,Clouds,dailyrainin,SoftwareType,DateUTC
2013-12-19 00:01:00,30.3,24.3,30.18,West,267,7.0,8.0,78,0.00,,---,0.00,VWS V14.00,2013-12-19 05:01:00,
2013-12-19 00:03:00,30.3,24.3,30.18,WSW,247,4.0,9.0,78,0.00,,---,0.00,VWS V14.00,2013-12-19 05:03:00,
2013-12-19 00:04:00,30.2,24.2,30.18,WSW,254,7.0,9.0,78,0.00,,---,0.00,VWS V14.00,2013-12-19 05:04:00,
2013-12-19 00:05:00,30.2,24.2,30.18,West,262,6.0,9.0,78,0.00,,---,0.00,VWS V14.00,2013-12-19 05:05:00,
2013-12-19 00:06:00,30.2,24.2,30.18,West,268,5.0,9.0,78,0.00,,---,0.00,VWS V14.00,2013-12-19 05:06:00,
2013-12-19 00:11:00,30.2,24.2,30.18,West,267,6.0,10.0,78,0.00,,---,0.00,VWS V14.00,2013-12-19 05:11:00,
2013-12-19 00:16:00,30.1,24.1,30.18,West,269,5.0,10.0,78,0.00,,---,0.00,VWS V14.00,2013-12-19 05:16:00,
2013-12-19 00:21:00,29.9,23.9,30.18,West,272,6.0,10.0,78,0.00,,---,0.00,VWS V14.00,2013-12-19 05:21:00,
2013-12-19 00:26:00,29.8,23.8,30.18,West,263,6.0,10.0,78,0.00,,---,0.00,VWS V14.00,2013-12-19 05:26:00,
2013-12-19 00:31:00,29.7,24.0,30.18,West,278,5.0,8.0,79,0.00,,---,0.00,VWS V14.00,2013-12-19 05:31:00,
2013-12-19 00:36:00,29.4,23.4,30.19,West,277,5.0,9.0,78,0.00,,---,0.00,VWS V14.00,2013-12-19 05:36:00,
2013-12-19 00:41:00,29.1,23.4,30.18,West,270,3.0,9.0,79,0.00,,---,0.00,VWS V14.00,2013-12-19 05:41:00,
2013-12-19 00:46:00,29.1,23.4,30.19,West,266,6.0,9.0,79,0.00,,---,0.00,VWS V14.00,2013-12-19 05:46:00,
2013-12-19 00:51:00,29.0,23.3,30.19,West,281,5.0,9.0,79,0.00,,---,0.00,VWS V14.00,2013-12-19 05:51:00,
2013-12-19 00:56:00,29.0,23.3,30.18,West,276,5.0,9.0,79,0.00,,---,0.00,VWS V14.00,2013-12-19 05:56:00,
2013-12-19 01:01:00,29.1,23.4,30.19,West,271,4.0,7.0,79,0.00,,---,0.00,VWS V14.00,2013-12-19 06:01:00,
2013-12-19 01:06:00,29.0,23.3,30.19,West,280,4.0,7.0,79,0.00,,---,0.00,VWS V14.00,2013-12-19 06:06:00,
2013-12-19 01:12:00,28.8,23.1,30.19,West,266,3.0,7.0,79,0.00,,---,0.00,VWS V14.00,2013-12-19 06:12:00,
2013-12-19 01:17:00,28.8,23.1,30.18,West,273,4.0,7.0,79,0.00,,---,0.00,VWS V14.00,2013-12-19 06:17:00,
2013-12-19 01:22:00,28.7,23.0,30.18,WSW,241,4.0,7.0,79,0.00,,---,0.00,VWS V14.00,2013-12-19 06:22:00,
2013-12-19 01:27:00,28.6,22.9,30.17,WSW,249,2.0,7.0,79,0.00,,---,0.00,VWS V14.00,2013-12-19 06:27:00,
2013-12-19 01:32:00,28.5,22.8,30.18,WSW,255,4.0,5.0,79,0.00,,---,0.00,VWS V14.00,2013-12-19 06:32:00,
2013-12-19 01:37:00,28.5,23.1,30.17,WSW,247,3.0,5.0,80,0.00,,---,0.00,VWS V14.00,2013-12-19 06:37:00,
2013-12-19 01:42:00,28.5,23.1,30.17,WSW,237,4.0,5.0,80,0.00,,---,0.00,VWS V14.00,2013-12-19 06:42:00,
2013-12-19 01:47:00,28.5,23.4,30.17,WSW,252,3.0,5.0,81,0.00,,---,0.00,VWS V14.00,2013-12-19 06:47:00,
2013-12-19 01:52:00,28.9,23.8,30.18,WSW,252,4.0,7.0,81,0.00,,---,0.00,VWS V14.00,2013-12-19 06:52:00,
2013-12-19 01:57:00,29.0,23.9,30.17,SW,235,4.0,7.0,81,0.00,,---,0.00,VWS V14.00,2013-12-19 06:57:00,
2013-12-19 02:02:00,28.9,23.8,30.18,WSW,243,2.0,4.0,81,0.00,,---,0.00,VWS V14.00,2013-12-19 07:02:00,
2013-12-19 02:07:00,28.9,24.1,30.18,WSW,245,3.0,4.0,82,0.00,,---,0.00,VWS V14.00,2013-12-19 07:07:00,
2013-12-19 02:12:00,29.0,24.5,30.18,SW,234,2.0,4.0,83,0.00,,---,0.00,VWS V14.00,2013-12-19 07:12:00,
2013-12-19 02:17:00,29.1,24.6,30.18,WSW,243,3.0,4.0,83,0.00,,---,0.00,VWS V14.00,2013-12-19 07:17:00,
2013-12-19 02:22:00,29.4,24.9,30.18,SW,236,4.0,6.0,83,0.00,,---,0.00,VWS V14.00,2013-12-19 07:22:00,
2013-12-19 02:28:00,29.7,25.2,30.19,WSW,245,2.0,6.0,83,0.00,,---,0.00,VWS V14.00,2013-12-19 07:28:00,
2013-12-19 02:33:00,29.8,25.3,30.19,WSW,255,4.0,4.0,83,0.00,,---,0.00,VWS V14.00,2013-12-19 07:33:00,
2013-12-19 02:38:00,30.0,25.5,30.19,WSW,245,2.0,6.0,83,0.00,,---,0.00,VWS V14.00,2013-12-19 07:38:00,
2013-12-19 02:43:00,30.0,25.5,30.19,WSW,243,1.0,6.0,83,0.00,,---,0.00,VWS V14.00,2013-12-19 07:43:00,
2013-12-19 02:48:00,30.0,25.8,30.19,WSW,243,2.0,6.0,84,0.00,,---,0.00,VWS V14.00,2013-12-19 07:48:00,
2013-12-19 02:53:00,30.1,26.1,30.19,WSW,254,5.0,6.0,85,0.00,,---,0.00,VWS V14.00,2013-12-19 07:53:00,
2013-12-19 02:58:00,30.5,26.0,30.19,WSW,247,6.0,7.0,83,0.00,,---,0.00,VWS V14.00,2013-12-19 07:58:00,
2013-12-19 03:03:00,30.7,25.9,30.20,WSW,256,4.0,7.0,82,0.00,,---,0.00,VWS V14.00,2013-12-19 08:03:00,
2013-12-19 03:08:00,30.6,25.8,30.20,West,273,4.0,7.0,82,0.00,,---,0.00,VWS V14.00,2013-12-19 08:08:00,
2013-12-19 03:13:00,30.5,25.7,30.20,West,270,5.0,7.0,82,0.00,,---,0.00,VWS V14.00,2013-12-19 08:13:00,
2013-12-19 03:18:00,30.3,25.5,30.20,WSW,255,3.0,7.0,82,0.00,,---,0.00,VWS V14.00,2013-12-19 08:18:00,
2013-12-19 03:23:00,30.2,25.1,30.20,West,262,6.0,7.0,81,0.00,,---,0.00,VWS V14.00,2013-12-19 08:23:00,
2013-12-19 03:28:00,30.2,24.8,30.20,WSW,255,5.0,7.0,80,0.00,,---,0.00,VWS V14.00,2013-12-19 08:28:00,
2013-12-19 03:33:00,30.1,24.7,30.20,WSW,245,5.0,7.0,80,0.00,,---,0.00,VWS V14.00,2013-12-19 08:33:00,
2013-12-19 03:38:00,30.0,24.9,30.19,WSW,242,3.0,7.0,81,0.00,,---,0.00,VWS V14.00,2013-12-19 08:38:00,
2013-12-19 03:43:00,29.8,24.7,30.18,WSW,245,1.0,7.0,81,0.00,,---,0.00,VWS V14.00,2013-12-19 08:43:00,
2013-12-19 03:48:00,29.8,25.0,30.19,WSW,245,1.0,7.0,82,0.00,,---,0.00,VWS V14.00,2013-12-19 08:48:00,
2013-12-19 03:53:00,29.7,25.2,30.18,WSW,245,1.0,7.0,83,0.00,,---,0.00,VWS V14.00,2013-12-19 08:53:00,
2013-12-19 03:59:00,29.7,25.2,30.18,WSW,245,1.0,7.0,83,0.00,,---,0.00,VWS V14.00,2013-12-19 08:59:00,
2013-12-19 04:04:00,29.7,25.5,30.18,WSW,245,2.0,2.0,84,0.00,,---,0.00,VWS V14.00,2013-12-19 09:04:00,
2013-12-19 04:09:00,29.8,25.6,30.18,WSW,245,1.0,3.0,84,0.00,,---,0.00,VWS V14.00,2013-12-19 09:09:00,
2013-12-19 04:14:00,30.1,26.1,30.18,WSW,243,2.0,3.0,85,0.00,,---,0.00,VWS V14.00,2013-12-19 09:14:00,
2013-12-19 04:19:00,30.1,26.1,30.18,WSW,243,1.0,3.0,85,0.00,,---,0.00,VWS V14.00,2013-12-19 09:19:00,
2013-12-19 04:24:00,30.0,25.8,30.18,WSW,237,1.0,3.0,84,0.00,,---,0.00,VWS V14.00,2013-12-19 09:24:00,
2013-12-19 04:29:00,30.1,26.1,30.17,SW,218,2.0,5.0,85,0.00,,---,0.00,VWS V14.00,2013-12-19 09:29:00,
2013-12-19 04:34:00,30.3,26.1,30.17,SW,229,3.0,4.0,84,0.00,,---,0.00,VWS V14.00,2013-12-19 09:34:00,
2013-12-19 04:39:00,30.6,26.4,30.17,WSW,240,5.0,7.0,84,0.00,,---,0.00,VWS V14.00,2013-12-19 09:39:00,
2013-12-19 04:44:00,31.1,26.5,30.17,WSW,257,4.0,7.0,83,0.00,,---,0.00,VWS V14.00,2013-12-19 09:44:00,
2013-12-19 04:49:00,31.4,26.8,30.17,SW,220,3.0,7.0,83,0.00,,---,0.00,VWS V14.00,2013-12-19 09:49:00,
2013-12-19 04:54:00,31.5,26.6,30.17,SW,221,3.0,7.0,82,0.00,,---,0.00,VWS V14.00,2013-12-19 09:54:00,
2013-12-19 04:59:00,31.6,26.8,30.17,SW,233,4.0,7.0,82,0.00,,---,0.00,VWS V14.00,2013-12-19 09:59:00,
2013-12-19 05:04:00,31.9,26.7,30.17,WSW,252,3.0,5.0,81,0.00,,---,0.00,VWS V14.00,2013-12-19 10:04:00,
2013-12-19 05:09:00,32.2,26.7,30.17,WSW,240,3.0,6.0,80,0.00,,---,0.00,VWS V14.00,2013-12-19 10:09:00,
2013-12-19 05:15:00,32.4,26.3,30.17,WSW,241,3.0,6.0,78,0.00,,---,0.00,VWS V14.00,2013-12-19 10:15:00,
2013-12-19 05:20:00,32.7,26.3,30.17,WSW,241,4.0,7.0,77,0.00,,---,0.00,VWS V14.00,2013-12-19 10:20:00,
2013-12-19 05:25:00,32.9,26.2,30.17,WSW,243,4.0,7.0,76,0.00,,---,0.00,VWS V14.00,2013-12-19 10:25:00,
2013-12-19 05:30:00,33.0,26.3,30.17,WSW,245,2.0,3.0,76,0.00,,---,0.00,VWS V14.00,2013-12-19 10:30:00,
2013-12-19 05:35:00,33.0,26.6,30.17,WSW,247,3.0,5.0,77,0.00,,---,0.00,VWS V14.00,2013-12-19 10:35:00,
2013-12-19 05:40:00,32.9,27.1,30.17,WSW,247,2.0,5.0,79,0.00,,---,0.00,VWS V14.00,2013-12-19 10:40:00,
2013-12-19 05:45:00,32.7,27.2,30.17,WSW,247,1.0,5.0,80,0.00,,---,0.00,VWS V14.00,2013-12-19 10:45:00,
2013-12-19 05:50:00,32.6,26.8,30.16,WSW,247,3.0,5.0,79,0.00,,---,0.00,VWS V14.00,2013-12-19 10:50:00,
2013-12-19 05:55:00,32.6,27.1,30.16,SW,232,2.0,5.0,80,0.00,,---,0.00,VWS V14.00,2013-12-19 10:55:00,
2013-12-19 06:00:00,32.8,27.3,30.16,WSW,239,1.0,3.0,80,0.00,,---,0.00,VWS V14.00,2013-12-19 11:00:00,
2013-12-19 06:05:00,32.9,27.4,30.16,SW,235,1.0,4.0,80,0.00,,---,0.00,VWS V14.00,2013-12-19 11:05:00,
2013-12-19 06:11:00,33.0,27.5,30.16,SW,229,3.0,4.0,80,0.00,,---,0.00,VWS V14.00,2013-12-19 11:11:00,
2013-12-19 06:16:00,33.2,27.7,30.16,SW,236,2.0,4.0,80,0.00,,---,0.00,VWS V14.00,2013-12-19 11:16:00,
2013-12-19 06:21:00,33.5,28.3,30.16,SW,224,4.0,6.0,81,0.00,,---,0.00,VWS V14.00,2013-12-19 11:21:00,
2013-12-19 06:26:00,34.3,29.4,30.16,SW,225,6.0,7.0,82,0.00,,---,0.00,VWS V14.00,2013-12-19 11:26:00,
2013-12-19 06:31:00,35.3,30.4,30.16,SSW,212,6.0,9.0,82,0.00,,---,0.00,VWS V14.00,2013-12-19 11:31:00,
2013-12-19 06:36:00,36.3,31.0,30.15,SW,227,4.0,11.0,81,0.00,,---,0.00,VWS V14.00,2013-12-19 11:36:00,
2013-12-19 06:41:00,37.0,31.4,30.14,SW,235,7.0,13.0,80,0.00,,---,0.00,VWS V14.00,2013-12-19 11:41:00,
2013-12-19 06:46:00,37.5,31.6,30.14,SW,222,7.0,13.0,79,0.00,,---,0.00,VWS V14.00,2013-12-19 11:46:00,
2013-12-19 06:51:00,37.9,32.0,30.14,WSW,239,6.0,13.0,79,0.00,,---,0.00,VWS V14.00,2013-12-19 11:51:00,
2013-12-19 06:56:00,38.2,32.6,30.14,South,185,12.0,13.0,80,0.00,,---,0.00,VWS V14.00,2013-12-19 11:56:00,
2013-12-19 07:01:00,38.6,33.0,30.14,SW,214,10.0,14.0,80,0.00,,---,0.00,VWS V14.00,2013-12-19 12:01:00,
2013-12-19 07:06:00,38.9,33.3,30.14,SW,223,10.0,16.0,80,0.00,,---,0.00,VWS V14.00,2013-12-19 12:06:00,
2013-12-19 07:11:00,39.2,33.9,30.14,SW,227,6.0,16.0,81,0.00,,---,0.00,VWS V14.00,2013-12-19 12:11:00,
2013-12-19 07:16:00,39.0,33.4,30.14,WSW,240,13.0,16.0,80,0.00,,---,0.00,VWS V14.00,2013-12-19 12:16:00,
2013-12-19 07:21:00,38.8,33.2,30.14,WSW,237,7.0,16.0,80,0.00,,---,0.00,VWS V14.00,2013-12-19 12:21:00,
2013-12-19 07:27:00,38.5,32.9,30.14,WSW,237,8.0,16.0,80,0.00,,---,0.00,VWS V14.00,2013-12-19 12:27:00,
2013-12-19 07:32:00,38.2,32.9,30.14,SW,222,9.0,15.0,81,0.00,,---,0.00,VWS V14.00,2013-12-19 12:32:00,
2013-12-19 07:37:00,38.0,32.7,30.14,SW,234,10.0,15.0,81,0.00,,---,0.00,VWS V14.00,2013-12-19 12:37:00,
2013-12-19 07:42:00,37.8,32.5,30.14,WSW,245,9.0,15.0,81,0.00,,---,0.00,VWS V14.00,2013-12-19 12:42:00,
2013-12-19 07:47:00,37.5,32.5,30.14,SW,224,8.0,15.0,82,0.00,,---,0.00,VWS V14.00,2013-12-19 12:47:00,
2013-12-19 07:52:00,37.2,32.2,30.14,WSW,239,8.0,15.0,82,0.00,,---,0.00,VWS V14.00,2013-12-19 12:52:00,
2013-12-19 07:57:00,37.2,32.2,30.14,SSW,212,12.0,15.0,82,0.00,,---,0.00,VWS V14.00,2013-12-19 12:57:00,
2013-12-19 08:02:00,37.4,32.4,30.14,SW,232,10.0,13.0,82,0.00,,---,0.00,VWS V14.00,2013-12-19 13:02:00,
2013-12-19 08:07:00,37.6,32.6,30.13,SW,232,6.0,13.0,82,0.00,,---,0.00,VWS V14.00,2013-12-19 13:07:00,
2013-12-19 08:12:00,37.7,32.4,30.13,SW,219,11.0,15.0,81,0.00,,---,0.00,VWS V14.00,2013-12-19 13:12:00,
2013-12-19 08:17:00,38.0,32.7,30.12,SW,220,4.0,16.0,81,0.00,,---,0.00,VWS V14.00,2013-12-19 13:17:00,
2013-12-19 08:22:00,38.5,32.6,30.12,WSW,240,10.0,19.0,79,0.00,,---,0.00,VWS V14.00,2013-12-19 13:22:00,
2013-12-19 08:27:00,39.1,32.2,30.12,WSW,239,9.0,19.0,76,0.00,,---,0.00,VWS V14.00,2013-12-19 13:27:00,
2013-12-19 08:32:00,39.8,31.9,30.12,SW,217,11.0,18.0,73,0.00,,---,0.00,VWS V14.00,2013-12-19 13:32:00,
2013-12-19 08:37:00,40.2,32.2,30.12,SW,222,11.0,18.0,73,0.00,,---,0.00,VWS V14.00,2013-12-19 13:37:00,
2013-12-19 08:42:00,40.5,32.2,30.12,WSW,243,13.0,18.0,72,0.00,,---,0.00,VWS V14.00,2013-12-19 13:42:00,
2013-12-19 08:47:00,40.7,32.4,30.12,SW,234,12.0,18.0,72,0.00,,---,0.00,VWS V14.00,2013-12-19 13:47:00,
2013-12-19 08:52:00,40.9,32.6,30.12,SW,234,14.0,19.0,72,0.00,,---,0.00,VWS V14.00,2013-12-19 13:52:00,
2013-12-19 08:58:00,41.0,32.7,30.12,WSW,238,17.0,20.0,72,0.00,,---,0.00,VWS V14.00,2013-12-19 13:58:00,
2013-12-19 09:03:00,41.0,33.0,30.12,WSW,240,12.0,17.0,73,0.00,,---,0.00,VWS V14.00,2013-12-19 14:03:00,
2013-12-19 09:08:00,41.0,33.0,30.12,SSW,204,15.0,20.0,73,0.00,,---,0.00,VWS V14.00,2013-12-19 14:08:00,
2013-12-19 09:13:00,41.0,33.4,30.13,WSW,241,16.0,20.0,74,0.00,,---,0.00,VWS V14.00,2013-12-19 14:13:00,
2013-12-19 09:18:00,41.0,33.4,30.12,SW,233,13.0,20.0,74,0.00,,---,0.00,VWS V14.00,2013-12-19 14:18:00,
2013-12-19 09:23:00,40.7,33.4,30.12,WSW,244,10.0,20.0,75,0.00,,---,0.00,VWS V14.00,2013-12-19 14:23:00,
2013-12-19 09:28:00,39.8,33.5,30.13,WSW,248,12.0,20.0,78,0.00,,---,0.00,VWS V14.00,2013-12-19 14:28:00,
2013-12-19 09:33:00,39.3,33.0,30.12,WSW,249,5.0,13.0,78,0.00,,---,0.00,VWS V14.00,2013-12-19 14:33:00,
2013-12-19 09:38:00,39.3,33.0,30.12,WSW,237,6.0,13.0,78,0.00,,---,0.00,VWS V14.00,2013-12-19 14:38:00,
2013-12-19 09:43:00,39.1,33.2,30.12,WSW,250,9.0,13.0,79,0.00,,---,0.00,VWS V14.00,2013-12-19 14:43:00,
2013-12-19 09:48:00,38.9,33.0,30.12,SW,229,7.0,13.0,79,0.00,,---,0.00,VWS V14.00,2013-12-19 14:48:00,
2013-12-19 09:53:00,39.1,33.2,30.12,WSW,249,6.0,13.0,79,0.00,,---,0.00,VWS V14.00,2013-12-19 14:53:00,
2013-12-19 09:58:00,39.5,33.5,30.12,WSW,238,10.0,13.0,79,0.00,,---,0.00,VWS V14.00,2013-12-19 14:58:00,
2013-12-19 10:03:00,40.0,34.0,30.12,WSW,244,6.0,13.0,79,0.00,,---,0.00,VWS V14.00,2013-12-19 15:03:00,
2013-12-19 10:08:00,40.6,33.6,30.12,WSW,255,12.0,18.0,76,0.00,,---,0.00,VWS V14.00,2013-12-19 15:08:00,
2013-12-19 10:14:00,40.6,33.6,30.11,WSW,247,12.0,18.0,76,0.00,,---,0.00,VWS V14.00,2013-12-19 15:14:00,
2013-12-19 10:19:00,40.6,33.3,30.11,SW,233,14.0,19.0,75,0.00,,---,0.00,VWS V14.00,2013-12-19 15:19:00,
2013-12-19 10:24:00,40.8,33.2,30.11,WSW,256,12.0,19.0,74,0.00,,---,0.00,VWS V14.00,2013-12-19 15:24:00,
2013-12-19 10:29:00,41.0,33.4,30.11,WSW,243,12.0,19.0,74,0.00,,---,0.00,VWS V14.00,2013-12-19 15:29:00,
2013-12-19 10:34:00,41.3,33.7,30.10,WSW,243,13.0,16.0,74,0.00,,---,0.00,VWS V14.00,2013-12-19 15:34:00,
2013-12-19 10:39:00,41.2,33.2,30.10,WSW,246,20.0,20.0,73,0.00,,---,0.00,VWS V14.00,2013-12-19 15:39:00,
2013-12-19 10:44:00,41.2,33.2,30.10,SW,228,12.0,20.0,73,0.00,,---,0.00,VWS V14.00,2013-12-19 15:44:00,
2013-12-19 10:49:00,41.4,33.1,30.09,WSW,252,14.0,20.0,72,0.00,,---,0.00,VWS V14.00,2013-12-19 15:49:00,
2013-12-19 10:54:00,42.0,32.9,30.09,WSW,246,14.0,20.0,70,0.00,,---,0.00,VWS V14.00,2013-12-19 15:54:00,
2013-12-19 10:59:00,42.1,32.7,30.09,SW,235,15.0,22.0,69,0.00,,---,0.00,VWS V14.00,2013-12-19 15:59:00,
2013-12-19 11:04:00,42.0,33.3,30.09,WSW,242,17.0,20.0,71,0.00,,---,0.00,VWS V14.00,2013-12-19 16:04:00,
2013-12-19 11:09:00,42.1,33.0,30.08,SW,231,15.0,23.0,70,0.00,,---,0.00,VWS V14.00,2013-12-19 16:09:00,
2013-12-19 11:14:00,42.2,33.1,30.08,WSW,258,15.0,23.0,70,0.00,,---,0.00,VWS V14.00,2013-12-19 16:14:00,
2013-12-19 11:19:00,42.3,33.2,30.08,WSW,240,16.0,23.0,70,0.00,,---,0.00,VWS V14.00,2013-12-19 16:19:00,
2013-12-19 11:24:00,42.2,33.1,30.08,WSW,237,15.0,23.0,70,0.00,,---,0.00,VWS V14.00,2013-12-19 16:24:00,
2013-12-19 11:29:00,41.6,33.3,30.08,WSW,251,14.0,23.0,72,0.00,,---,0.00,VWS V14.00,2013-12-19 16:29:00,
2013-12-19 11:34:00,41.3,33.3,30.08,SW,229,13.0,20.0,73,0.00,,---,0.00,VWS V14.00,2013-12-19 16:34:00,
2013-12-19 11:40:00,41.4,33.4,30.08,WSW,243,13.0,20.0,73,0.00,,---,0.00,VWS V14.00,2013-12-19 16:40:00,
2013-12-19 11:45:00,41.4,33.4,30.08,WSW,249,11.0,20.0,73,0.00,,---,0.00,VWS V14.00,2013-12-19 16:45:00,
2013-12-19 11:50:00,41.5,33.5,30.07,WSW,240,8.0,20.0,73,0.00,,---,0.00,VWS V14.00,2013-12-19 16:50:00,
2013-12-19 11:55:00,41.8,33.8,30.07,West,264,14.0,20.0,73,0.00,,---,0.00,VWS V14.00,2013-12-19 16:55:00,
2013-12-19 12:00:00,42.1,34.1,30.07,WSW,240,12.0,12.0,73,0.00,,---,0.00,VWS V14.00,2013-12-19 17:00:00,
2013-12-19 12:05:00,42.2,34.2,30.07,SW,235,13.0,15.0,73,0.00,,---,0.00,VWS V14.00,2013-12-19 17:05:00,
2013-12-19 12:10:00,42.5,34.1,30.07,WSW,248,7.0,15.0,72,0.00,,---,0.00,VWS V14.00,2013-12-19 17:10:00,
2013-12-19 12:15:00,42.9,34.2,30.07,WSW,249,9.0,15.0,71,0.00,,---,0.00,VWS V14.00,2013-12-19 17:15:00,
2013-12-19 12:20:00,43.2,33.7,30.06,WSW,241,10.0,15.0,69,0.00,,---,0.00,VWS V14.00,2013-12-19 17:20:00,
2013-12-19 12:25:00,43.1,32.5,30.06,WSW,256,6.0,15.0,66,0.00,,---,0.00,VWS V14.00,2013-12-19 17:25:00,
2013-12-19 12:30:00,43.5,32.5,30.06,SW,235,11.0,14.0,65,0.00,,---,0.00,VWS V14.00,2013-12-19 17:30:00,
2013-12-19 12:35:00,43.8,32.8,30.06,WSW,241,9.0,15.0,65,0.00,,---,0.00,VWS V14.00,2013-12-19 17:35:00,
2013-12-19 12:40:00,44.0,33.0,30.06,WSW,246,15.0,15.0,65,0.00,,---,0.00,VWS V14.00,2013-12-19 17:40:00,
2013-12-19 12:45:00,44.4,33.4,30.05,WSW,237,13.0,15.0,65,0.00,,---,0.00,VWS V14.00,2013-12-19 17:45:00,
2013-12-19 12:50:00,44.6,32.8,30.05,SW,231,11.0,15.0,63,0.00,,---,0.00,VWS V14.00,2013-12-19 17:50:00,
2013-12-19 12:55:00,44.5,33.1,30.05,SW,228,8.0,15.0,64,0.00,,---,0.00,VWS V14.00,2013-12-19 17:55:00,
2013-12-19 13:00:00,44.6,33.6,30.05,WSW,239,7.0,12.0,65,0.00,,---,0.00,VWS V14.00,2013-12-19 18:00:00,
2013-12-19 13:05:00,44.5,33.5,30.06,WSW,247,9.0,13.0,65,0.00,,---,0.00,VWS V14.00,2013-12-19 18:05:00,
2013-12-19 13:10:00,44.5,33.9,30.06,SW,235,9.0,13.0,66,0.00,,---,0.00,VWS V14.00,2013-12-19 18:10:00,
2013-12-19 13:15:00,45.4,34.0,30.05,SW,228,9.0,13.0,64,0.00,,---,0.00,VWS V14.00,2013-12-19 18:15:00,
2013-12-19 13:20:00,46.1,33.8,30.05,WSW,252,14.0,14.0,62,0.00,,---,0.00,VWS V14.00,2013-12-19 18:20:00,
2013-12-19 13:25:00,46.4,33.7,30.05,WSW,242,11.0,14.0,61,0.00,,---,0.00,VWS V14.00,2013-12-19 18:25:00,
2013-12-19 13:30:00,46.8,33.7,30.05,SW,235,8.0,11.0,60,0.00,,---,0.00,VWS V14.00,2013-12-19 18:30:00,
2013-12-19 13:35:00,47.0,33.8,30.05,WSW,247,8.0,16.0,60,0.00,,---,0.00,VWS V14.00,2013-12-19 18:35:00,
2013-12-19 13:40:00,47.0,33.8,30.05,WSW,243,6.0,16.0,60,0.00,,---,0.00,VWS V14.00,2013-12-19 18:40:00,
2013-12-19 13:45:00,47.3,33.7,30.04,WSW,244,7.0,16.0,59,0.00,,---,0.00,VWS V14.00,2013-12-19 18:45:00,
2013-12-19 13:50:00,47.3,33.7,30.04,SW,221,7.0,16.0,59,0.00,,---,0.00,VWS V14.00,2013-12-19 18:50:00,
2013-12-19 13:56:00,47.4,33.8,30.04,SW,222,9.0,16.0,59,0.00,,---,0.00,VWS V14.00,2013-12-19 18:56:00,
2013-12-19 14:01:00,47.6,33.1,30.04,WSW,246,10.0,12.0,57,0.00,,---,0.00,VWS V14.00,2013-12-19 19:01:00,
2013-12-19 14:06:00,47.6,33.6,30.04,SW,226,4.0,13.0,58,0.00,,---,0.00,VWS V14.00,2013-12-19 19:06:00,
2013-12-19 14:11:00,47.4,33.4,30.04,SW,218,10.0,14.0,58,0.00,,---,0.00,VWS V14.00,2013-12-19 19:11:00,
2013-12-19 14:16:00,47.6,33.1,30.04,WSW,247,15.0,15.0,57,0.00,,---,0.00,VWS V14.00,2013-12-19 19:16:00,
2013-12-19 14:21:00,47.8,32.9,30.04,SW,235,10.0,17.0,56,0.00,,---,0.00,VWS V14.00,2013-12-19 19:21:00,
2013-12-19 14:26:00,47.9,33.0,30.04,WSW,249,7.0,18.0,56,0.00,,---,0.00,VWS V14.00,2013-12-19 19:26:00,
2013-12-19 14:31:00,47.9,33.0,30.04,WSW,252,9.0,16.0,56,0.00,,---,0.00,VWS V14.00,2013-12-19 19:31:00,
2013-12-19 14:36:00,48.2,33.3,30.04,SSW,200,4.0,16.0,56,0.00,,---,0.00,VWS V14.00,2013-12-19 19:36:00,
2013-12-19 14:41:00,48.5,33.5,30.04,SW,219,12.0,16.0,56,0.00,,---,0.00,VWS V14.00,2013-12-19 19:41:00,
2013-12-19 14:46:00,48.6,33.2,30.04,WSW,245,7.0,17.0,55,0.00,,---,0.00,VWS V14.00,2013-12-19 19:46:00,
2013-12-19 14:51:00,48.6,33.6,30.04,WSW,243,10.0,17.0,56,0.00,,---,0.00,VWS V14.00,2013-12-19 19:51:00,
2013-12-19 14:56:00,48.6,33.6,30.04,SW,233,10.0,17.0,56,0.00,,---,0.00,VWS V14.00,2013-12-19 19:56:00,
2013-12-19 15:01:00,48.7,33.7,30.04,SW,233,10.0,12.0,56,0.00,,---,0.00,VWS V14.00,2013-12-19 20:01:00,
2013-12-19 15:06:00,48.8,33.8,30.04,SW,228,7.0,14.0,56,0.00,,---,0.00,VWS V14.00,2013-12-19 20:06:00,
2013-12-19 15:11:00,48.9,34.3,30.05,WSW,245,9.0,14.0,57,0.00,,---,0.00,VWS V14.00,2013-12-19 20:11:00,
2013-12-19 15:16:00,49.0,36.6,30.05,WSW,239,7.0,14.0,62,0.00,,---,0.00,VWS V14.00,2013-12-19 20:16:00,
2013-12-19 15:21:00,48.5,35.7,30.05,SW,222,4.0,14.0,61,0.00,,---,0.00,VWS V14.00,2013-12-19 20:21:00,
2013-12-19 15:26:00,48.7,36.3,30.05,SW,216,5.0,14.0,62,0.00,,---,0.00,VWS V14.00,2013-12-19 20:26:00,
2013-12-19 15:32:00,48.2,37.0,30.05,SW,224,5.0,10.0,65,0.00,,---,0.00,VWS V14.00,2013-12-19 20:32:00,
2013-12-19 15:37:00,47.7,37.3,30.06,SSW,209,5.0,10.0,67,0.00,,---,0.00,VWS V14.00,2013-12-19 20:37:00,
2013-12-19 15:42:00,47.0,37.7,30.05,SW,229,6.0,10.0,70,0.00,,---,0.00,VWS V14.00,2013-12-19 20:42:00,
2013-12-19 15:47:00,46.5,38.0,30.05,SSW,204,6.0,10.0,72,0.00,,---,0.00,VWS V14.00,2013-12-19 20:47:00,
2013-12-19 15:52:00,46.1,37.6,30.06,South,189,7.0,11.0,72,0.00,,---,0.00,VWS V14.00,2013-12-19 20:52:00,
2013-12-19 15:57:00,45.8,37.7,30.06,SSW,202,5.0,11.0,73,0.00,,---,0.00,VWS V14.00,2013-12-19 20:57:00,
2013-12-19 16:02:00,45.6,37.5,30.06,SSW,202,7.0,7.0,73,0.00,,---,0.00,VWS V14.00,2013-12-19 21:02:00,
2013-12-19 16:07:00,45.3,37.5,30.06,SW,220,6.0,8.0,74,0.00,,---,0.00,VWS V14.00,2013-12-19 21:07:00,
2013-12-19 16:12:00,45.4,36.6,30.07,SW,222,4.0,9.0,71,0.00,,---,0.00,VWS V14.00,2013-12-19 21:12:00,
2013-12-19 16:17:00,45.6,37.1,30.07,SSW,200,4.0,9.0,72,0.00,,---,0.00,VWS V14.00,2013-12-19 21:17:00,
2013-12-19 16:22:00,45.5,36.7,30.07,WSW,237,9.0,11.0,71,0.00,,---,0.00,VWS V14.00,2013-12-19 21:22:00,
2013-12-19 16:27:00,45.9,35.2,30.07,SW,235,5.0,11.0,66,0.00,,---,0.00,VWS V14.00,2013-12-19 21:27:00,
2013-12-19 16:32:00,46.2,34.7,30.07,SW,236,7.0,13.0,64,0.00,,---,0.00,VWS V14.00,2013-12-19 21:32:00,
2013-12-19 16:37:00,46.2,34.3,30.07,SW,236,6.0,13.0,63,0.00,,---,0.00,VWS V14.00,2013-12-19 21:37:00,
2013-12-19 16:42:00,46.1,34.2,30.07,WSW,241,9.0,13.0,63,0.00,,---,0.00,VWS V14.00,2013-12-19 21:42:00,
2013-12-19 16:47:00,46.1,33.8,30.08,WSW,241,10.0,14.0,62,0.00,,---,0.00,VWS V14.00,2013-12-19 21:47:00,
2013-12-19 16:52:00,46.2,33.5,30.08,WSW,245,8.0,14.0,61,0.00,,---,0.00,VWS V14.00,2013-12-19 21:52:00,
2013-12-19 16:58:00,46.3,33.6,30.08,SW,230,9.0,17.0,61,0.00,,---,0.00,VWS V14.00,2013-12-19 21:58:00,
2013-12-19 17:03:00,46.1,33.4,30.08,SW,229,6.0,14.0,61,0.00,,---,0.00,VWS V14.00,2013-12-19 22:03:00,
2013-12-19 17:08:00,45.9,33.2,30.08,WSW,238,7.0,14.0,61,0.00,,---,0.00,VWS V14.00,2013-12-19 22:08:00,
2013-12-19 17:13:00,45.7,33.0,30.08,SW,229,7.0,14.0,61,0.00,,---,0.00,VWS V14.00,2013-12-19 22:13:00,
2013-12-19 17:18:00,45.9,32.8,30.08,WSW,238,6.0,14.0,60,0.00,,---,0.00,VWS V14.00,2013-12-19 22:18:00,
2013-12-19 17:23:00,46.1,32.6,30.09,WSW,243,12.0,14.0,59,0.00,,---,0.00,VWS V14.00,2013-12-19 22:23:00,
2013-12-19 17:28:00,46.5,32.5,30.09,SW,217,15.0,17.0,58,0.00,,---,0.00,VWS V14.00,2013-12-19 22:28:00,
2013-12-19 17:33:00,46.7,32.3,30.09,WSW,252,12.0,14.0,57,0.00,,---,0.00,VWS V14.00,2013-12-19 22:33:00,
2013-12-19 17:38:00,46.9,32.5,30.09,WSW,250,12.0,16.0,57,0.00,,---,0.00,VWS V14.00,2013-12-19 22:38:00,
2013-12-19 17:43:00,46.8,32.8,30.09,WSW,241,13.0,16.0,58,0.00,,---,0.00,VWS V14.00,2013-12-19 22:43:00,
2013-12-19 17:49:00,46.6,33.0,30.09,WSW,243,11.0,16.0,59,0.00,,---,0.00,VWS V14.00,2013-12-19 22:49:00,
2013-12-19 17:54:00,46.6,33.0,30.09,SW,233,10.0,16.0,59,0.00,,---,0.00,VWS V14.00,2013-12-19 22:54:00,
2013-12-19 17:59:00,46.8,33.2,30.09,SW,231,7.0,16.0,59,0.00,,---,0.00,VWS V14.00,2013-12-19 22:59:00,
2013-12-19 18:04:00,46.9,33.3,30.10,WSW,239,10.0,14.0,59,0.00,,---,0.00,VWS V14.00,2013-12-19 23:04:00,
2013-12-19 18:09:00,46.8,33.7,30.09,SW,235,9.0,14.0,60,0.00,,---,0.00,VWS V14.00,2013-12-19 23:09:00,
2013-12-19 18:14:00,46.4,33.7,30.10,SW,236,12.0,14.0,61,0.00,,---,0.00,VWS V14.00,2013-12-19 23:14:00,
2013-12-19 18:19:00,46.5,33.8,30.10,SW,227,5.0,14.0,61,0.00,,---,0.00,VWS V14.00,2013-12-19 23:19:00,
2013-12-19 18:24:00,46.7,34.0,30.10,WSW,241,9.0,14.0,61,0.00,,---,0.00,VWS V14.00,2013-12-19 23:24:00,
2013-12-19 18:29:00,46.7,34.0,30.10,WSW,246,6.0,14.0,61,0.00,,---,0.00,VWS V14.00,2013-12-19 23:29:00,
2013-12-19 18:34:00,46.4,34.5,30.11,WSW,250,9.0,13.0,63,0.00,,---,0.00,VWS V14.00,2013-12-19 23:34:00,
2013-12-19 18:39:00,46.3,34.8,30.11,WSW,242,6.0,13.0,64,0.00,,---,0.00,VWS V14.00,2013-12-19 23:39:00,
2013-12-19 18:44:00,45.9,35.2,30.11,WSW,249,10.0,13.0,66,0.00,,---,0.00,VWS V14.00,2013-12-19 23:44:00,
2013-12-19 18:49:00,45.1,35.2,30.10,SW,229,7.0,13.0,68,0.00,,---,0.00,VWS V14.00,2013-12-19 23:49:00,
2013-12-19 18:54:00,44.5,35.3,30.10,WSW,238,7.0,13.0,70,0.00,,---,0.00,VWS V14.00,2013-12-19 23:54:00,
2013-12-19 19:00:00,43.7,35.6,30.11,SW,226,6.0,6.0,73,0.00,,---,0.00,VWS V14.00,2013-12-20 00:00:00,
2013-12-19 19:05:00,43.1,35.4,30.11,WSW,256,7.0,9.0,74,0.00,,---,0.00,VWS V14.00,2013-12-20 00:05:00,
2013-12-19 19:10:00,42.4,35.4,30.11,WSW,252,6.0,9.0,76,0.00,,---,0.00,VWS V14.00,2013-12-20 00:10:00,
2013-12-19 19:15:00,42.1,35.4,30.11,WSW,253,6.0,9.0,77,0.00,,---,0.00,VWS V14.00,2013-12-20 00:15:00,
2013-12-19 19:20:00,41.9,35.5,30.11,WSW,253,5.0,9.0,78,0.00,,---,0.00,VWS V14.00,2013-12-20 00:20:00,
2013-12-19 19:25:00,41.9,35.9,30.11,SW,219,7.0,9.0,79,0.00,,---,0.00,VWS V14.00,2013-12-20 00:25:00,
2013-12-19 19:30:00,42.5,36.1,30.11,SW,234,6.0,9.0,78,0.00,,---,0.00,VWS V14.00,2013-12-20 00:30:00,
2013-12-19 19:35:00,42.3,35.9,30.11,WSW,249,6.0,9.0,78,0.00,,---,0.00,VWS V14.00,2013-12-20 00:35:00,
2013-12-19 19:40:00,42.0,36.0,30.11,WSW,241,7.0,9.0,79,0.00,,---,0.00,VWS V14.00,2013-12-20 00:40:00,
2013-12-19 19:45:00,42.2,36.2,30.11,SW,231,5.0,9.0,79,0.00,,---,0.00,VWS V14.00,2013-12-20 00:45:00,
2013-12-19 19:50:00,42.7,36.0,30.11,WSW,237,8.0,11.0,77,0.00,,---,0.00,VWS V14.00,2013-12-20 00:50:00,
2013-12-19 19:55:00,43.5,36.1,30.11,WSW,256,9.0,11.0,75,0.00,,---,0.00,VWS V14.00,2013-12-20 00:55:00,
2013-12-19 20:00:00,43.3,35.9,30.11,WSW,237,4.0,7.0,75,0.00,,---,0.00,VWS V14.00,2013-12-20 01:00:00,
2013-12-19 20:05:00,43.3,35.9,30.11,WSW,247,5.0,7.0,75,0.00,,---,0.00,VWS V14.00,2013-12-20 01:05:00,
2013-12-19 20:10:00,43.8,36.4,30.11,SW,222,5.0,12.0,75,0.00,,---,0.00,VWS V14.00,2013-12-20 01:10:00,
2013-12-19 20:15:00,44.0,36.6,30.11,WSW,238,6.0,12.0,75,0.00,,---,0.00,VWS V14.00,2013-12-20 01:15:00,
2013-12-19 20:20:00,43.9,36.5,30.11,SW,226,5.0,12.0,75,0.00,,---,0.00,VWS V14.00,2013-12-20 01:20:00,
2013-12-19 20:26:00,43.6,36.2,30.11,SW,227,6.0,12.0,75,0.00,,---,0.00,VWS V14.00,2013-12-20 01:26:00,
2013-12-19 20:31:00,43.4,36.3,30.11,SW,227,5.0,8.0,76,0.00,,---,0.00,VWS V14.00,2013-12-20 01:31:00,
2013-12-19 20:36:00,43.0,36.3,30.11,SW,223,4.0,9.0,77,0.00,,---,0.00,VWS V14.00,2013-12-20 01:36:00,
2013-12-19 20:41:00,42.8,36.4,30.11,SW,233,6.0,9.0,78,0.00,,---,0.00,VWS V14.00,2013-12-20 01:41:00,
2013-12-19 20:46:00,42.8,36.4,30.11,SW,231,6.0,9.0,78,0.00,,---,0.00,VWS V14.00,2013-12-20 01:46:00,
2013-12-19 20:51:00,42.8,36.4,30.11,WSW,240,5.0,9.0,78,0.00,,---,0.00,VWS V14.00,2013-12-20 01:51:00,
2013-12-19 20:56:00,42.5,36.5,30.11,SW,219,6.0,9.0,79,0.00,,---,0.00,VWS V14.00,2013-12-20 01:56:00,
2013-12-19 21:01:00,42.4,36.7,30.12,SW,234,8.0,8.0,80,0.00,,---,0.00,VWS V14.00,2013-12-20 02:01:00,
2013-12-19 21:06:00,42.0,36.6,30.12,WSW,249,5.0,9.0,81,0.00,,---,0.00,VWS V14.00,2013-12-20 02:06:00,
2013-12-19 21:11:00,41.7,36.9,30.12,SW,227,6.0,9.0,83,0.00,,---,0.00,VWS V14.00,2013-12-20 02:11:00,
2013-12-19 21:16:00,41.6,37.4,30.11,SW,227,7.0,10.0,85,0.00,,---,0.00,VWS V14.00,2013-12-20 02:16:00,
2013-12-19 21:21:00,41.7,37.5,30.11,SW,230,5.0,10.0,85,0.00,,---,0.00,VWS V14.00,2013-12-20 02:21:00,
2013-12-19 21:26:00,41.9,37.4,30.11,WSW,252,7.0,10.0,84,0.00,,---,0.00,VWS V14.00,2013-12-20 02:26:00,
2013-12-19 21:31:00,42.2,37.4,30.11,SW,233,6.0,9.0,83,0.00,,---,0.00,VWS V14.00,2013-12-20 02:31:00,
2013-12-19 21:36:00,42.2,37.1,30.11,SW,236,5.0,9.0,82,0.00,,---,0.00,VWS V14.00,2013-12-20 02:36:00,
2013-12-19 21:41:00,42.2,36.8,30.11,WSW,238,3.0,9.0,81,0.00,,---,0.00,VWS V14.00,2013-12-20 02:41:00,
2013-12-19 21:46:00,42.1,37.0,30.12,SW,228,6.0,9.0,82,0.00,,---,0.00,VWS V14.00,2013-12-20 02:46:00,
2013-12-19 21:51:00,42.1,37.0,30.11,WSW,244,5.0,9.0,82,0.00,,---,0.00,VWS V14.00,2013-12-20 02:51:00,
2013-12-19 21:56:00,41.8,36.7,30.11,WSW,238,4.0,9.0,82,0.00,,---,0.00,VWS V14.00,2013-12-20 02:56:00,
2013-12-19 22:02:00,41.8,36.7,30.11,WSW,243,4.0,7.0,82,0.00,,---,0.00,VWS V14.00,2013-12-20 03:02:00,
2013-12-19 22:07:00,42.0,36.6,30.11,WSW,243,4.0,7.0,81,0.00,,---,0.00,VWS V14.00,2013-12-20 03:07:00,
2013-12-19 22:12:00,42.3,36.6,30.11,WSW,246,5.0,7.0,80,0.00,,---,0.00,VWS V14.00,2013-12-20 03:12:00,
2013-12-19 22:17:00,42.4,36.4,30.11,SW,234,4.0,7.0,79,0.00,,---,0.00,VWS V14.00,2013-12-20 03:17:00,
2013-12-19 22:22:00,42.1,36.1,30.11,WSW,252,4.0,7.0,79,0.00,,---,0.00,VWS V14.00,2013-12-20 03:22:00,
2013-12-19 22:27:00,41.3,35.9,30.11,WSW,245,3.0,7.0,81,0.00,,---,0.00,VWS V14.00,2013-12-20 03:27:00,
2013-12-19 22:32:00,41.1,35.7,30.11,WSW,237,5.0,6.0,81,0.00,,---,0.00,VWS V14.00,2013-12-20 03:32:00,
2013-12-19 22:37:00,41.1,35.7,30.10,WSW,239,5.0,9.0,81,0.00,,---,0.00,VWS V14.00,2013-12-20 03:37:00,
2013-12-19 22:42:00,41.4,35.7,30.11,SW,235,6.0,9.0,80,0.00,,---,0.00,VWS V14.00,2013-12-20 03:42:00,
2013-12-19 22:47:00,41.9,35.9,30.10,WSW,239,6.0,12.0,79,0.00,,---,0.00,VWS V14.00,2013-12-20 03:47:00,
2013-12-19 22:52:00,42.2,35.8,30.11,WSW,243,6.0,12.0,78,0.00,,---,0.00,VWS V14.00,2013-12-20 03:52:00,
2013-12-19 22:57:00,41.8,35.8,30.11,WSW,258,5.0,12.0,79,0.00,,---,0.00,VWS V14.00,2013-12-20 03:57:00,
2013-12-19 23:02:00,41.4,35.4,30.11,WSW,256,5.0,7.0,79,0.00,,---,0.00,VWS V14.00,2013-12-20 04:02:00,
2013-12-19 23:07:00,41.2,35.5,30.11,SW,229,7.0,9.0,80,0.00,,---,0.00,VWS V14.00,2013-12-20 04:07:00,
2013-12-19 23:12:00,41.7,35.7,30.10,WSW,246,7.0,10.0,79,0.00,,---,0.00,VWS V14.00,2013-12-20 04:12:00,
2013-12-19 23:18:00,42.2,35.8,30.10,WSW,237,9.0,10.0,78,0.00,,---,0.00,VWS V14.00,2013-12-20 04:18:00,
2013-12-19 23:23:00,42.5,35.8,30.10,SW,231,6.0,13.0,77,0.00,,---,0.00,VWS V14.00,2013-12-20 04:23:00,
2013-12-19 23:28:00,42.2,35.2,30.10,WSW,243,6.0,13.0,76,0.00,,---,0.00,VWS V14.00,2013-12-20 04:28:00,
2013-12-19 23:33:00,42.2,35.2,30.10,WSW,247,5.0,10.0,76,0.00,,---,0.00,VWS V14.00,2013-12-20 04:33:00,
2013-12-19 23:38:00,42.2,35.2,30.10,WSW,249,7.0,11.0,76,0.00,,---,0.00,VWS V14.00,2013-12-20 04:38:00,
2013-12-19 23:43:00,42.0,35.3,30.10,SW,233,7.0,12.0,77,0.00,,---,0.00,VWS V14.00,2013-12-20 04:43:00,
2013-12-19 23:48:00,42.2,35.2,30.10,WSW,248,7.0,12.0,76,0.00,,---,0.00,VWS V14.00,2013-12-20 04:48:00,
2013-12-19 23:53:00,42.1,35.1,30.10,West,263,6.0,12.0,76,0.00,,---,0.00,VWS V14.00,2013-12-20 04:53:00,
2013-12-19 23:58:00,41.8,35.1,30.10,WSW,248,6.0,12.0,77,0.00,,---,0.00,VWS V14.00,2013-12-20 04:58:00,